Weather History for KBKW - August, 2012

Change the Weather History Date:

Tuesday, August 21, 2012

  Actual Average Record
Temperature  
Mean Temperature 64 °F 70 °F  
Max Temperature 77 °F 79 °F 95 °F (1936)
Min Temperature 51 °F 60 °F 34 °F (1940)
Degree Days  
Heating Degree Days 1 0  
Month to date heating degree days 3 0  
Since 1 June heating degree days 53 47  
Since 1 July heating degree days 3 8  
Cooling Degree Days 0 5  
Month to date cooling degree days 103 118  
Year to date cooling degree days 632 451  
Since 1 June cooling degree days 518 410  
Growing Degree Days 14 (Base 50)    
Moisture  
Dew Point 51 °F    
Average Humidity 67    
Maximum Humidity 96    
Minimum Humidity 38    
Precipitation  
Precipitation 0.00 in 0.11 in 1.13 in (1980)
Month to date precipitation 1.97 2.56  
Year to date precipitation 29.91 28.75  
Snow  
Snow 0.00 in - - ()
Month to date snowfall 0.0  
Since 1 September snowfall 36.0  
Snow Depth 0.00 in    
Sea Level Pressure  
Sea Level Pressure 30.06 in    
Wind  
Wind Speed 2 mph (WNW)    
Max Wind Speed 12 mph    
Max Gust Speed 14 mph    
Visibility 10 miles    
Events      
T = Trace of Precipitation, MM = Missing Value Source: NWS Daily Summary

Daily Weather History Graph

Daily Weather History Graph

Search for Another Location

Airport or City:

Trip Planner

Search our weather history database for the weather conditions in past years. The results will help you decide how hot, cold, wet, or windy it might be!

Date:

Astronomy

Aug. 21, 2012 Rise Set
Actual Time 6:45 AM EDT 8:08 PM EDT
Civil Twilight 6:18 AM EDT 8:36 PM EDT
Nautical Twilight 5:45 AM EDT 9:09 PM EDT
Astronomical Twilight 5:10 AM EDT 9:43 PM EDT
Moon 11:08 AM EDT (8/21) 10:14 PM EDT (8/21)
Length of Visible Light 14h 18m
Length of Day
13h 23m
Waxing Crescent, 19% of the Moon is Illuminated
Aug 21
Waxing Crescent
Aug 24
First Quarter
Aug 31
Full
Sep 8
Last Quarter
Sep 15
New

Hourly Weather History & Observations

Time (EDT) Temp. Dew Point Humidity Pressure Visibility Wind Dir Wind Speed Gust Speed Precip Events Conditions
12:51 AM 55.9 °F 52.0 °F 87% 30.02 in 10.0 mi SSE 5.8 mph - N/A   Clear
1:51 AM 55.9 °F 52.0 °F 87% 30.02 in 10.0 mi Calm Calm - N/A   Clear
2:51 AM 54.0 °F 51.1 °F 90% 30.03 in 10.0 mi Calm Calm - N/A   Clear
3:51 AM 54.0 °F 51.1 °F 90% 30.03 in 10.0 mi Calm Calm - N/A   Clear
4:51 AM 53.1 °F 50.0 °F 89% 30.03 in 10.0 mi Calm Calm - N/A   Clear
5:51 AM 52.0 °F 50.0 °F 93% 30.04 in 10.0 mi Calm Calm - N/A   Clear
6:51 AM 51.1 °F 48.0 °F 89% 30.05 in 10.0 mi Calm Calm - N/A   Clear
7:51 AM 55.0 °F 51.1 °F 86% 30.06 in 10.0 mi Calm Calm - N/A   Clear
8:51 AM 61.0 °F 55.0 °F 81% 30.06 in 10.0 mi Calm Calm - N/A   Clear
9:51 AM 66.9 °F 55.9 °F 68% 30.07 in 10.0 mi West 3.5 mph - N/A   Clear
10:51 AM 70.0 °F 52.0 °F 53% 30.08 in 10.0 mi Calm Calm - N/A   Clear
11:51 AM 71.1 °F 51.1 °F 49% 30.09 in 10.0 mi Calm Calm - N/A   Clear
12:51 PM 72.0 °F 50.0 °F 46% 30.07 in 10.0 mi Calm Calm - N/A   Scattered Clouds
1:51 PM 73.9 °F 50.0 °F 43% 30.07 in 10.0 mi Calm Calm - N/A   Clear
2:51 PM 75.0 °F 48.0 °F 38% 30.05 in 10.0 mi Variable 4.6 mph - N/A   Partly Cloudy
3:51 PM 75.9 °F 51.1 °F 42% 30.04 in 10.0 mi WNW 6.9 mph - N/A   Partly Cloudy
4:51 PM 73.9 °F 50.0 °F 43% 30.05 in 10.0 mi Variable 3.5 mph - N/A   Partly Cloudy
5:51 PM 75.9 °F 50.0 °F 40% 30.04 in 10.0 mi WNW 4.6 mph - N/A   Clear
6:51 PM 73.9 °F 48.9 °F 41% 30.05 in 10.0 mi NNW 5.8 mph - N/A   Clear
7:51 PM 66.9 °F 52.0 °F 59% 30.08 in 10.0 mi NW 11.5 mph - N/A   Clear
8:51 PM 62.1 °F 53.1 °F 72% 30.10 in 10.0 mi Calm Calm - N/A   Scattered Clouds
9:51 PM 60.1 °F 52.0 °F 75% 30.11 in 10.0 mi Calm Calm - N/A   Clear
10:51 PM 57.9 °F 52.0 °F 81% 30.12 in 10.0 mi SSE 3.5 mph - N/A   Clear
11:51 PM 57.9 °F 52.0 °F 81% 30.11 in 10.0 mi Calm Calm - N/A   Clear